When you browse on this site, cookies collect data to enhance your experience and personalize the content and advertising you see.
Visit our Privacy Policy to learn more. By continuing to use the site, you agree to this use of cookies and data.
  • In United Kingdom
  • List of Countries
  • For 7 days
  • Water Temperature
  • Satellite Maps
  • Weather Map
  • Weather Widgets
  • user-avatar
    Login

    Hourly Weather Naftalan

    Today, 23 January, Wednesday

    Time Temperature Precipitation Wind Pressure Humidity
    00:00 +8°C° 0 mm 2 mps 766 mmHg 78%
    01:00 +8°C° 0 mm 3 mps 767 mmHg 79%
    02:00 +6°C° 0 mm 4 mps 767 mmHg 81%
    03:00 +6°C° 0 mm 5 mps 767 mmHg 77%
    04:00 +6°C° 0 mm 5 mps 768 mmHg 77%
    05:00 +6°C° 0 mm 5 mps 768 mmHg 78%
    06:00 +6°C° 0 mm 5 mps 768 mmHg 79%
    07:00 +6°C° 0 mm 5 mps 769 mmHg 77%
    08:00 +7°C° 0 mm 5 mps 769 mmHg 75%
    09:00 +8°C° 0 mm 5 mps 770 mmHg 74%
    10:00 +8°C° 0 mm 5 mps 770 mmHg 72%
    11:00 +9°C° 0 mm 5 mps 770 mmHg 71%
    12:00 +9°C° 0 mm 5 mps 770 mmHg 70%
    13:00 +9°C° 0 mm 5 mps 770 mmHg 71%
    14:00 +9°C° 0 mm 5 mps 769 mmHg 71%
    15:00 +9°C° 0 mm 5 mps 769 mmHg 72%
    16:00 +8°C° 0 mm 5 mps 769 mmHg 74%
    17:00 +8°C° 0 mm 4 mps 770 mmHg 76%
    18:00 +8°C° 0 mm 4 mps 770 mmHg 78%
    19:00 +8°C° 0 mm 4 mps 770 mmHg 78%
    20:00 +8°C° 0 mm 4 mps 770 mmHg 78%
    21:00 +8°C° 0 mm 4 mps 770 mmHg 79%
    22:00 +8°C° 0 mm 4 mps 770 mmHg 81%
    23:00 +8°C° 0 mm 4 mps 769 mmHg 83%

    Tomorrow, 24 January, Thursday

    Time Temperature Precipitation Wind Pressure Humidity
    00:00 +8°C° 0 mm 4 mps 769 mmHg 85%
    01:00 +9°C° 0 mm 3 mps 769 mmHg 86%
    02:00 +9°C° 0 mm 3 mps 769 mmHg 86%
    03:00 +9°C° 0 mm 3 mps 769 mmHg 87%
    04:00 +9°C° 0.1 mm 3 mps 769 mmHg 89%
    05:00 +8°C° 0.1 mm 3 mps 769 mmHg 90%
    06:00 +8°C° 0.1 mm 3 mps 769 mmHg 92%
    07:00 +8°C° 0 mm 3 mps 769 mmHg 91%
    08:00 +8°C° 0 mm 3 mps 769 mmHg 90%
    09:00 +8°C° 0 mm 3 mps 769 mmHg 89%
    10:00 +8°C° 0 mm 2 mps 769 mmHg 85%
    11:00 +9°C° 0 mm 2 mps 768 mmHg 82%
    12:00 +11°C° 0 mm 1 mps 768 mmHg 78%
    13:00 +11°C° 0 mm 1 mps 767 mmHg 77%
    14:00 +11°C° 0 mm 1 mps 767 mmHg 77%
    15:00 +11°C° 0 mm 1 mps 767 mmHg 76%
    16:00 +11°C° 0 mm 1 mps 767 mmHg 80%
    17:00 +10°C° 0 mm 2 mps 767 mmHg 83%
    18:00 +9°C° 0 mm 2 mps 767 mmHg 87%
    19:00 +9°C° 0 mm 2 mps 766 mmHg 89%
    20:00 +9°C° 0 mm 2 mps 766 mmHg 90%
    21:00 +9°C° 0 mm 2 mps 766 mmHg 92%
    22:00 +9°C° 0 mm 2 mps 765 mmHg 93%
    23:00 +10°C° 0 mm 1 mps 765 mmHg 94%

    Day after tomorrow, 25 January, Friday

    Time Temperature Precipitation Wind Pressure Humidity
    00:00 +9°C° 0 mm 1 mps 765 mmHg 94%
    01:00 +8°C° 0 mm 2 mps 765 mmHg 95%
    02:00 +8°C° 0 mm 2 mps 764 mmHg 95%
    03:00 +8°C° 0 mm 2 mps 764 mmHg 96%
    04:00 +7°C° 0 mm 3 mps 764 mmHg 94%
    05:00 +7°C° 0 mm 3 mps 763 mmHg 92%
    06:00 +5°C° 0 mm 3 mps 763 mmHg 89%
    07:00 +7°C° 0 mm 3 mps 763 mmHg 80%
    08:00 +8°C° 0 mm 3 mps 763 mmHg 70%
    09:00 +7°C° 0 mm 4 mps 763 mmHg 61%
    10:00 +10°C° 0 mm 4 mps 763 mmHg 54%
    11:00 +11°C° 0 mm 4 mps 763 mmHg 48%
    12:00 +12°C° 0 mm 4 mps 763 mmHg 41%
    13:00 +13°C° 0 mm 3 mps 762 mmHg 40%
    14:00 +13°C° 0 mm 3 mps 762 mmHg 39%
    15:00 +13°C° 0 mm 3 mps 762 mmHg 38%
    16:00 +12°C° 0 mm 3 mps 762 mmHg 41%
    17:00 +12°C° 0 mm 2 mps 762 mmHg 45%
    18:00 +10°C° 0 mm 2 mps 762 mmHg 48%
    19:00 +10°C° 0 mm 2 mps 763 mmHg 48%
    20:00 +9°C° 0 mm 2 mps 763 mmHg 48%
    21:00 +9°C° 0 mm 3 mps 763 mmHg 48%
    22:00 +9°C° 0 mm 3 mps 763 mmHg 48%
    23:00 +9°C° 0 mm 3 mps 764 mmHg 49%

    26 January, Saturday

    Time Temperature Precipitation Wind Pressure Humidity
    00:00 +8°C° 0 mm 3 mps 764 mmHg 49%
    01:00 +8°C° 0 mm 2 mps 764 mmHg 50%
    02:00 +8°C° 0 mm 2 mps 764 mmHg 51%
    03:00 +8°C° 0 mm 2 mps 764 mmHg 52%
    04:00 +7°C° 0 mm 2 mps 764 mmHg 53%
    05:00 +7°C° 0 mm 2 mps 764 mmHg 54%
    06:00 +7°C° 0 mm 2 mps 764 mmHg 55%
    07:00 +8°C° 0 mm 2 mps 764 mmHg 52%
    08:00 +9°C° 0 mm 1 mps 764 mmHg 50%
    09:00 +10°C° 0 mm 1 mps 764 mmHg 48%
    10:00 +11°C° 0 mm 1 mps 764 mmHg 47%
    11:00 +12°C° 0 mm 1 mps 763 mmHg 46%
    12:00 +13°C° 0 mm 1 mps 763 mmHg 45%
    13:00 +14°C° 0 mm 1 mps 762 mmHg 45%
    14:00 +14°C° 0 mm 1 mps 762 mmHg 45%
    15:00 +14°C° 0 mm 1 mps 762 mmHg 45%
    16:00 +13°C° 0 mm 1 mps 762 mmHg 50%
    17:00 +12°C° 0 mm 1 mps 762 mmHg 55%
    18:00 +11°C° 0 mm 1 mps 762 mmHg 61%
    19:00 +11°C° 0 mm 1 mps 762 mmHg 62%
    20:00 +10°C° 0 mm 1 mps 762 mmHg 63%
    21:00 +10°C° 0 mm 1 mps 762 mmHg 65%
    22:00 +9°C° 0 mm 2 mps 761 mmHg 64%
    23:00 +9°C° 0 mm 2 mps 761 mmHg 64%

    27 January, Sunday

    Time Temperature Precipitation Wind Pressure Humidity
    00:00 +9°C° 0 mm 3 mps 761 mmHg 64%
    01:00 +9°C° 0 mm 3 mps 761 mmHg 58%
    02:00 +9°C° 0 mm 3 mps 761 mmHg 53%
    03:00 +8°C° 0 mm 4 mps 760 mmHg 47%
    04:00 +8°C° 0 mm 4 mps 760 mmHg 47%
    05:00 +7°C° 0 mm 4 mps 760 mmHg 47%
    06:00 +7°C° 0 mm 5 mps 760 mmHg 47%
    07:00 +8°C° 0 mm 5 mps 760 mmHg 45%
    08:00 +9°C° 0 mm 5 mps 761 mmHg 43%
    09:00 +10°C° 0 mm 5 mps 761 mmHg 42%
    10:00 +12°C° 0 mm 5 mps 760 mmHg 40%
    11:00 +14°C° 0 mm 4 mps 760 mmHg 38%
    12:00 +15°C° 0 mm 4 mps 759 mmHg 36%
    13:00 +16°C° 0 mm 3 mps 759 mmHg 36%
    14:00 +17°C° 0 mm 3 mps 758 mmHg 35%
    15:00 +17°C° 0 mm 3 mps 758 mmHg 35%
    16:00 +16°C° 0 mm 3 mps 758 mmHg 39%
    17:00 +14°C° 0 mm 3 mps 758 mmHg 42%
    18:00 +12°C° 0 mm 4 mps 758 mmHg 45%
    19:00 +12°C° 0 mm 4 mps 759 mmHg 46%
    20:00 +11°C° 0 mm 4 mps 759 mmHg 48%
    21:00 +10°C° 0 mm 5 mps 759 mmHg 49%
    22:00 +10°C° 0 mm 5 mps 759 mmHg 49%
    23:00 +9°C° 0 mm 5 mps 759 mmHg 49%

    28 January, Monday

    Time Temperature Precipitation Wind Pressure Humidity
    00:00 +9°C° 0 mm 6 mps 760 mmHg 49%
    01:00 +9°C° 0 mm 6 mps 760 mmHg 50%
    02:00 +8°C° 0 mm 6 mps 760 mmHg 51%
    03:00 +8°C° 0 mm 6 mps 760 mmHg 53%
    04:00 +8°C° 0 mm 5 mps 760 mmHg 54%
    05:00 +8°C° 0 mm 5 mps 760 mmHg 55%
    06:00 +7°C° 0 mm 4 mps 760 mmHg 56%
    07:00 +7°C° 0 mm 4 mps 761 mmHg 63%
    08:00 +7°C° 0 mm 4 mps 761 mmHg 70%
    09:00 +7°C° 0 mm 4 mps 761 mmHg 77%
    10:00 +7°C° 0.2 mm 4 mps 761 mmHg 80%
    11:00 +7°C° 0.2 mm 4 mps 761 mmHg 83%
    12:00 +7°C° 0.2 mm 4 mps 760 mmHg 86%
    13:00 +7°C° 1.5 mm 4 mps 760 mmHg 87%
    14:00 +7°C° 1.5 mm 4 mps 759 mmHg 88%
    15:00 +6°C° 1.5 mm 5 mps 759 mmHg 90%
    16:00 +6°C° 1 mm 5 mps 759 mmHg 90%
    17:00 +5°C° 1 mm 6 mps 759 mmHg 90%
    18:00 +5°C° 1 mm 6 mps 760 mmHg 90%
    19:00 +4°C° 1.2 mm 6 mps 760 mmHg 90%
    20:00 +5°C° 1.2 mm 5 mps 761 mmHg 89%
    21:00 +5°C° 1.2 mm 5 mps 762 mmHg 89%
    22:00 +5°C° 0.2 mm 5 mps 762 mmHg 88%
    23:00 +5°C° 0.2 mm 4 mps 763 mmHg 87%
    Show more